EW2719 Weather Reports


time (UTC)temp
C
wind
direction
speed
KPH
gust
KPH
rain 1hr
cm
rain 24hr
cm
rain mn
cm
humidity
%
barometer
mb
20260831124514 17 185 9.7 20.9 0.00 0.64 0.25 92 1004.7
20260831123019 17 178 12.9 19.3 0.00 0.64 0.25 92 1004.8
20260831121512 16 185 8.0 17.7 0.00 0.64 0.25 94 1004.8
20260831120012 16 167 11.3 17.7 0.15 0.64 0.25 94 1004.7
20260831114511 16 180 9.7 17.7 0.20 0.64 0.25 94 1004.7
20260831113014 15 184 9.7 16.1 0.25 0.64 0.25 93 1004.6
20260831111510 16 171 12.9 19.3 0.25 0.64 0.25 93 1004.6
20260831110009 16 198 14.5 22.5 0.10 0.48 0.10 93 1004.6
20260831104514 17 196 11.3 24.1 0.05 0.43 0.05 92 1004.7
20260831103007 17 198 14.5 22.5 0.00 0.38 0.00 90 1004.8
20260831101507 18 187 12.9 24.1 0.00 0.38 0.00 88 1004.8
20260831100005 18 220 16.1 25.7 0.00 0.41 0.00 88 1004.9
20260831094504 18 170 16.1 24.1 0.00 0.41 0.00 88 1004.8
20260831093001 18 226 19.3 30.6 0.00 0.41 0.00 90 1004.8
20260831091605 17 187 16.1 27.4 0.00 0.41 0.00 92 1005.0
20260831090056 17 147 4.8 16.1 0.00 0.41 0.00 94 1005.1
20260831084554 17 138 6.4 17.7 0.00 0.48 0.00 94 1005.2
20260831083055 16 175 11.3 17.7 0.00 0.48 0.00 94 1005.4
20260831081550 16 158 9.7 19.3 0.00 0.48 0.00 94 1005.6
20260831080048 16 186 11.3 19.3 0.00 0.48 0.00 94 1005.6
20260831074550 16 183 9.7 17.7 0.00 0.58 0.00 94 1005.5
20260831073047 16 182 9.7 17.7 0.00 0.58 0.00 95 1005.6
20260831071546 16 184 9.7 16.1 0.00 0.58 0.00 95 1005.6
20260831070047 16 171 8.0 14.5 0.00 0.58 0.00 95 1005.9
20260831064542 16 179 3.2 4.8 0.00 0.66 0.00 95 1006.1
20260831063040 15 184 4.8 8.0 0.00 0.66 0.00 96 1006.1
20260831061536 15 203 4.8 12.9 0.00 0.66 0.00 96 1006.1
20260831060031 15 190 3.2 14.5 0.00 0.66 0.00 96 1006.2
20260831054530 14 184 9.7 11.3 0.00 0.69 0.00 96 1006.1
20260831053027 14 200 4.8 11.3 0.00 0.69 0.00 95 1006.3
20260831051530 13 194 4.8 9.7 0.00 0.69 0.00 95 1006.4
20260831050019 13 192 4.8 9.7 0.00 0.69 0.00 95 1006.5
20260831044518 13 194 1.6 6.4 0.00 0.71 0.00 95 1006.6
20260831043015 13 198 4.8 9.7 0.00 0.71 0.00 95 1006.5
20260831041514 13 197 4.8 8.0 0.00 0.71 0.00 95 1006.5
20260831040031 13 210 6.4 11.3 0.00 0.71 0.00 95 1006.6
20260831034514 13 215 8.0 11.3 0.00 0.71 0.00 95 1006.5
20260831033012 13 199 8.0 11.3 0.00 0.71 0.00 95 1006.8
20260831031508 13 192 4.8 11.3 0.00 0.71 0.00 95 1006.8
20260831030007 14 209 6.4 12.9 0.00 0.71 0.00 95 1007.0
20260831024506 14 202 6.4 11.3 0.00 0.71 0.00 95 1007.1
20260831023007 13 206 8.0 12.9 0.00 0.71 0.00 95 1007.0
20260831021503 14 196 6.4 12.9 0.00 0.71 0.00 94 1007.1
20260831020001 14 211 4.8 12.9 0.00 0.71 0.00 94 1007.1
20260831014501 14 217 6.4 11.3 0.00 0.71 0.00 94 1007.2
20260831013108 14 212 8.0 16.1 0.00 0.71 0.00 94 1007.3
20260831011557 14 221 9.7 16.1 0.00 0.71 0.00 94 1007.3
20260831010056 14 221 8.0 14.5 0.00 0.71 0.00 94 1007.4
20260831004552 15 226 9.7 16.1 0.00 0.71 0.00 94 1007.3
20260831003050 15 221 9.7 16.1 0.00 0.71 0.00 94 1007.5
20260831001548 15 213 8.0 12.9 0.00 0.71 0.00 94 1007.4
20260831000048 15 210 8.0 12.9 0.00 0.71 0.00 94 1007.3
20260830234549 15 231 8.0 12.9 0.00 0.71 0.00 93 1007.3
20260830233045 15 215 6.4 11.3 0.00 0.71 0.00 93 1007.3
20260830231557 15 213 4.8 9.7 0.00 0.71 0.00 93 1007.4
20260830230047 15 209 4.8 9.7 0.00 0.71 0.00 93 1007.4
20260830224550 15 207 3.2 9.7 0.00 0.71 0.00 93 1007.2
20260830223040 15 217 4.8 11.3 0.00 0.71 0.00 93 1007.3
20260830221541 15 220 4.8 12.9 0.00 0.71 0.00 92 1007.3
20260830220036 15 227 6.4 12.9 0.00 0.71 0.00 92 1007.2
20260830214536 15 213 1.6 11.3 0.00 0.71 0.71 92 1007.4
20260830213034 15 234 1.6 6.4 0.00 0.71 0.71 91 1007.4
20260830211534 15 214 1.6 8.0 0.00 0.71 0.71 91 1007.3
20260830210032 15 250 1.6 11.3 0.00 0.71 0.71 90 1007.2
20260830204531 15 245 1.6 12.9 0.00 0.71 0.71 90 1007.2
20260830203036 15 261 6.4 14.5 0.00 0.71 0.71 90 1007.4
20260830201537 15 257 4.8 14.5 0.00 0.71 0.71 89 1007.3
20260830200027 15 252 6.4 17.7 0.00 0.71 0.71 89 1007.3
20260830194525 16 262 6.4 12.9 0.00 0.71 0.71 89 1007.1
20260830193027 16 267 9.7 19.3 0.00 0.71 0.71 89 1007.0
20260830191525 16 276 8.0 20.9 0.00 0.71 0.71 89 1006.9
20260830190021 16 275 9.7 22.5 0.00 0.71 0.71 89 1006.7
20260830184520 15 292 11.3 20.9 0.00 0.71 0.71 89 1006.4
20260830183018 16 275 11.3 19.3 0.00 0.71 0.71 89 1006.2
20260830181516 16 288 11.3 20.9 0.00 0.71 0.71 89 1006.1
20260830180023 16 275 14.5 24.1 0.00 0.71 0.71 89 1006.0
20260830174510 16 252 17.7 32.2 0.00 0.71 0.71 88 1005.8
20260830173009 17 284 14.5 22.5 0.00 0.71 0.71 89 1005.6
20260830171505 17 285 11.3 20.9 0.00 0.71 0.71 88 1005.4
20260830170003 17 273 16.1 24.1 0.00 0.71 0.71 87 1005.1
20260830164619 17 264 16.1 27.4 0.00 0.71 0.71 86 1005.1
20260830163058 17 296 22.5 32.2 0.00 0.71 0.71 85 1004.9
20260830161605 17 285 19.3 32.2 0.00 0.71 0.71 87 1004.5
20260830160059 18 271 17.7 30.6 0.00 0.71 0.71 86 1004.4
20260830154556 18 313 8.0 22.5 0.00 0.71 0.71 88 1004.1
20260830153056 17 309 16.1 29.0 0.00 0.71 0.71 86 1004.0
20260830151602 18 310 8.0 27.4 0.00 0.71 0.71 87 1004.0
20260830150054 18 302 8.0 29.0 0.00 0.71 0.71 88 1003.8
20260830144553 18 308 14.5 29.0 0.00 0.71 0.71 89 1003.6
20260830143101 17 311 9.7 16.1 0.00 0.71 0.71 93 1003.4
20260830141556 17 320 11.3 24.1 0.00 0.71 0.71 94 1003.1
20260830140051 17 320 11.3 24.1 0.03 0.71 0.71 94 1003.0
20260830134553 17 328 22.5 29.0 0.18 0.71 0.71 94 1002.7
20260830133103 17 329 20.9 30.6 0.38 0.71 0.71 94 1002.5
20260830131546 17 335 19.3 29.0 0.36 0.71 0.71 94 1002.3
20260830130045 18 329 17.7 24.1 0.36 0.71 0.71 93 1001.8